(194884) = 2002 AW76

Discovered at Socorro on 2002-01-08 by LINEAR.

Orbit

Orbit type: Main Belt

Note: WebGL enabled browser required.

epoch2024-03-31.0
epoch JD2460400.5
perihelion date2023-09-07.76651
perihelion JD2460195.26651
argument of perihelion (°)69.12109
ascending node (°)29.43251
inclination (°)2.71248
eccentricity0.1692832
perihelion distance (AU)1.9595304
Tisserand w.r.t. Jupiter3.5
ΔV w.r.t. Earth (km/sec)8.7
semimajor axis (AU)2.3588429
mean anomaly (°)55.83462
mean daily motion (°/day)0.27205410
aphelion distance (AU)2.758
period (years)3.62
P-vector [x]-0.14822023
P-vector [y]0.88885226
P-vector [z]0.43355788
Q-vector [x]-0.98868093
Q-vector [y]-0.14348934
Q-vector [z]-0.04382735
absolute magnitude17.32
phase slope0.15
uncertainty0
referenceMPEC 2024-E109
observations used401
oppositions14
arc length (days)8114
first opposition used2001
last opposition used2024
residual rms (arc-secs)0.71
perturbers coarse indicatorM-v
perturbers precise indicator003Ek
first observation date used2001-12-18.0
last observation date used2024-03-06.0
computer nameMPCLINUX
Minimum Orbit Intersection Distances (in AU)
for orbit epoch: 2460400.5, reference: E2024-GD4
Mercury1.64738
Venus1.24057
Earth0.97877
Mars0.34672
Jupiter2.40051
Saturn7.07514
Uranus16.1819
Neptune27.4646

Observations

403 total observations over interval: 2001 12 18.31266 – 2024 03 06.381589
These data are available for download (format description).

Date (UT) J2000 RA J2000 Dec Magn Location Ref
2001 12 18.31266 07 47 57.22 +26 04 31.1 19.7   644 – Palomar Mountain/NEAT MPS 47407
2001 12 18.32657 07 47 56.67 +26 04 34.2 19.3   644 – Palomar Mountain/NEAT MPS 47407
2001 12 18.34265 07 47 56.04 +26 04 38.1 19.7   644 – Palomar Mountain/NEAT MPS 47407
2001 12 18.44777 07 47 51.84 +26 05 01.1 19.5   704 – Lincoln Laboratory ETS, New Mexico MPS 47407
2001 12 18.46353 07 47 51.12 +26 05 04.4 19.6   704 – Lincoln Laboratory ETS, New Mexico MPS 47407
2001 12 18.48000 07 47 50.52 +26 05 06.7 19.8   704 – Lincoln Laboratory ETS, New Mexico MPS 47407
2001 12 18.51241 07 47 49.27 +26 05 12.7 19.7   704 – Lincoln Laboratory ETS, New Mexico MPS 47407
2001 12 19.46603 07 47 13.16 +26 08 39.6 18.5   704 – Lincoln Laboratory ETS, New Mexico MPS 47407
2001 12 19.48117 07 47 12.74 +26 08 44.4 19.6   704 – Lincoln Laboratory ETS, New Mexico MPS 47407
2001 12 19.49653 07 47 12.06 +26 08 48.2 19.6   704 – Lincoln Laboratory ETS, New Mexico MPS 47407
2001 12 19.51167 07 47 11.43 +26 08 50.8 19.5   704 – Lincoln Laboratory ETS, New Mexico MPS 47407
2001 12 19.52691 07 47 10.81 +26 08 53.6 19.7   704 – Lincoln Laboratory ETS, New Mexico MPS 47407
2002 01 08.30233 07 28 57.46 +27 16 21.1 18.4   704 – Lincoln Laboratory ETS, New Mexico MPS 47407
2002 01 08.31724 07 28 56.43 +27 16 23.3 19.0   704 – Lincoln Laboratory ETS, New Mexico MPS 47407
2002 01 08.33215 07 28 55.39 +27 16 25.8 19.2   704 – Lincoln Laboratory ETS, New Mexico MPS 47407
2002 01 08.34707 07 28 54.34 +27 16 28.0 18.8   704 – Lincoln Laboratory ETS, New Mexico MPS 47407
2002 01 08.36200 07 28 53.34 +27 16 30.4 19.0   704 – Lincoln Laboratory ETS, New Mexico MPS 47407
2002 01 14.23444 07 22 28.66 +27 30 20.4 18.8   704 – Lincoln Laboratory ETS, New Mexico MPS 47407
2002 01 14.24954 07 22 27.62 +27 30 21.9 18.9   704 – Lincoln Laboratory ETS, New Mexico MPS 47407
2002 01 14.26466 07 22 26.64 +27 30 23.2 19.4   704 – Lincoln Laboratory ETS, New Mexico MPS 47407
2002 01 14.28377 07 22 25.30 +27 30 25.9 19.2   704 – Lincoln Laboratory ETS, New Mexico MPS 47407
2002 01 14.29910 07 22 24.26 +27 30 27.8 19.3   704 – Lincoln Laboratory ETS, New Mexico MPS 47407
2002 01 17.42968 07 19 04.13 +27 35 55.6 19.5   644 – Palomar Mountain/NEAT MPS 47407
2002 01 17.45073 07 19 02.78 +27 35 57.5 19.8   644 – Palomar Mountain/NEAT MPS 47407
2002 01 17.47288 07 19 01.36 +27 35 59.2 19.6   644 – Palomar Mountain/NEAT MPS 47407
2002 01 21.22795 07 15 14.44 +27 40 43.9 18.8   704 – Lincoln Laboratory ETS, New Mexico MPS 47407
2002 01 21.24272 07 15 13.59 +27 40 44.6 19.1   704 – Lincoln Laboratory ETS, New Mexico MPS 47407
2002 01 21.25755 07 15 12.66 +27 40 45.4 19.3   704 – Lincoln Laboratory ETS, New Mexico MPS 47407
2002 01 21.27234 07 15 11.70 +27 40 46.4 19.0   704 – Lincoln Laboratory ETS, New Mexico MPS 47407
2002 02 04.16862 07 04 29.30 +27 41 19.0 20.2   644 – Palomar Mountain/NEAT MPS 52493
2002 02 04.18992 07 04 28.57 +27 41 17.7 20.2   644 – Palomar Mountain/NEAT MPS 52493
2002 02 04.21127 07 04 27.85 +27 41 17.2 19.9   644 – Palomar Mountain/NEAT MPS 52493
2002 02 10.10106 07 02 01.06 +27 34 33.5 19.8   704 – Lincoln Laboratory ETS, New Mexico MPS 49916
2002 02 10.11538 07 02 00.70 +27 34 32.5 20.1   704 – Lincoln Laboratory ETS, New Mexico MPS 49916
2002 02 10.12971 07 02 00.38 +27 34 30.7 20.5   704 – Lincoln Laboratory ETS, New Mexico MPS 49916
2002 02 10.14404 07 02 00.11 +27 34 29.6 20.2   704 – Lincoln Laboratory ETS, New Mexico MPS 49916
2004 09 16.35474 23 41 33.87 -04 58 56.2 20.1 V 691 – Steward Observatory, Kitt Peak-Spacewatch MPS 165010
2004 09 16.38762 23 41 31.88 -04 59 06.6 20.1 V 691 – Steward Observatory, Kitt Peak-Spacewatch MPS 165010
2004 09 16.42002 23 41 29.92 -04 59 16.6 20.0 V 691 – Steward Observatory, Kitt Peak-Spacewatch MPS 165010
2006 02 20.44698 12 36 24.45 -00 59 27.7   691 – Steward Observatory, Kitt Peak-Spacewatch MPS 163698
2006 02 20.46434 12 36 23.95 -00 59 25.0   691 – Steward Observatory, Kitt Peak-Spacewatch MPS 163698
2006 02 20.48169 12 36 23.44 -00 59 22.7   691 – Steward Observatory, Kitt Peak-Spacewatch MPS 163698
2006 02 21.41647 12 35 57.08 -00 56 55.1 20.5 V G96 – Mt. Lemmon Survey MPS 163698
2006 02 21.42600 12 35 56.79 -00 56 53.8 20.6 V G96 – Mt. Lemmon Survey MPS 163698
2006 02 21.43552 12 35 56.47 -00 56 52.1 20.5 V G96 – Mt. Lemmon Survey MPS 163698
2006 02 21.44502 12 35 56.18 -00 56 50.5 20.5 V G96 – Mt. Lemmon Survey MPS 163698
2006 02 24.39508 12 34 22.13 -00 48 07.6 20.4 V 691 – Steward Observatory, Kitt Peak-Spacewatch MPS 163698
2006 02 24.41233 12 34 21.47 -00 48 04.1 20.3 V 691 – Steward Observatory, Kitt Peak-Spacewatch MPS 163698
2006 02 24.42969 12 34 20.84 -00 48 00.8 20.2 V 691 – Steward Observatory, Kitt Peak-Spacewatch MPS 163698
2006 03 02.36035 12 30 26.04 -00 26 32.3 20.3 V 691 – Steward Observatory, Kitt Peak-Spacewatch MPS 165010
2006 03 02.37759 12 30 25.23 -00 26 28.3 20.3 V 691 – Steward Observatory, Kitt Peak-Spacewatch MPS 165010
2006 03 02.39484 12 30 24.43 -00 26 24.0 20.2 V 691 – Steward Observatory, Kitt Peak-Spacewatch MPS 165010
2006 03 06.36628 12 27 17.38 -00 09 33.2   691 – Steward Observatory, Kitt Peak-Spacewatch MPS 165984
2006 03 06.38397 12 27 16.46 -00 09 28.2   691 – Steward Observatory, Kitt Peak-Spacewatch MPS 165984
2006 03 06.40127 12 27 15.56 -00 09 23.8   691 – Steward Observatory, Kitt Peak-Spacewatch MPS 165984
2006 03 24.18931 12 10 28.29 +01 17 13.2 20.3 V 691 – Steward Observatory, Kitt Peak-Spacewatch MPS 166968
2006 03 24.20666 12 10 27.21 +01 17 18.9 20.6 V 691 – Steward Observatory, Kitt Peak-Spacewatch MPS 166968
2006 03 24.22405 12 10 26.18 +01 17 23.3 20.2 V 691 – Steward Observatory, Kitt Peak-Spacewatch MPS 166968
2006 03 26.29271 12 08 23.67 +01 27 20.6 19.8 V G96 – Mt. Lemmon Survey MPS 166968
2006 03 26.30035 12 08 23.17 +01 27 22.8 19.8 V G96 – Mt. Lemmon Survey MPS 166968
2006 03 26.30771 12 08 22.74 +01 27 25.0 19.6 V G96 – Mt. Lemmon Survey MPS 166968
2006 03 26.31510 12 08 22.27 +01 27 26.9 19.9 V G96 – Mt. Lemmon Survey MPS 166968
2006 04 25.19106 11 46 46.59 +02 53 30.6 20.6 V G96 – Mt. Lemmon Survey MPS 169837
2006 04 25.19663 11 46 46.48 +02 53 30.8 21.0 V G96 – Mt. Lemmon Survey MPS 169837
2006 04 25.20228 11 46 46.30 +02 53 31.1 20.7 V G96 – Mt. Lemmon Survey MPS 169837
2006 04 25.20803 11 46 46.20 +02 53 31.5 20.4 V G96 – Mt. Lemmon Survey MPS 169837
2008 09 06.41263 03 38 03.66 +19 29 49.5 20.6 V G96 – Mt. Lemmon Survey MPS 255778
2008 09 06.41811 03 38 03.94 +19 29 51.5 20.8 V G96 – Mt. Lemmon Survey MPS 255778
2008 09 06.42356 03 38 04.20 +19 29 53.2 20.8 V G96 – Mt. Lemmon Survey MPS 255778
2008 09 06.42905 03 38 04.56 +19 29 54.8 20.7 V G96 – Mt. Lemmon Survey MPS 255778
2008 09 25.40774 03 50 30.33 +20 37 21.2 20.2 V G96 – Mt. Lemmon Survey MPS 256570
2008 09 25.41394 03 50 30.44 +20 37 22.0 20.4 V G96 – Mt. Lemmon Survey MPS 256570
2008 09 25.42020 03 50 30.62 +20 37 23.0 20.5 V G96 – Mt. Lemmon Survey MPS 256570
2008 09 25.42649 03 50 30.73 +20 37 24.3 20.3 V G96 – Mt. Lemmon Survey MPS 256570
2008 10 20.31554 03 49 30.24 +21 22 11.8 20.0 V 691 – Steward Observatory, Kitt Peak-Spacewatch MPS 260516
2008 10 20.33320 03 49 29.68 +21 22 12.5 19.9 V 691 – Steward Observatory, Kitt Peak-Spacewatch MPS 260516
2008 10 20.35085 03 49 29.10 +21 22 13.7 19.9 V 691 – Steward Observatory, Kitt Peak-Spacewatch MPS 260516
2008 10 24.28492 03 47 18.07 +21 23 58.5 19.9 V 691 – Steward Observatory, Kitt Peak-Spacewatch MPS 261338
2008 10 24.30608 03 47 17.22 +21 23 59.1 19.8 V 691 – Steward Observatory, Kitt Peak-Spacewatch MPS 261338
2008 10 24.32377 03 47 16.51 +21 23 59.4 19.8 V 691 – Steward Observatory, Kitt Peak-Spacewatch MPS 261338
2008 10 28.30676 03 44 31.59 +21 24 06.5 19.4   704 – Lincoln Laboratory ETS, New Mexico MPS 261338
2008 10 28.31821 03 44 31.10 +21 24 06.5 19.7   704 – Lincoln Laboratory ETS, New Mexico MPS 261338
2008 10 28.32968 03 44 30.52 +21 24 05.6 19.7   704 – Lincoln Laboratory ETS, New Mexico MPS 261338
2008 10 28.34116 03 44 29.86 +21 24 05.3 19.7   704 – Lincoln Laboratory ETS, New Mexico MPS 261338
2008 10 31.28229 03 42 09.47 +21 23 03.1   691 – Steward Observatory, Kitt Peak-Spacewatch MPS 261338
2008 10 31.30001 03 42 08.53 +21 23 02.7   691 – Steward Observatory, Kitt Peak-Spacewatch MPS 261338
2008 10 31.31773 03 42 07.58 +21 23 02.4   691 – Steward Observatory, Kitt Peak-Spacewatch MPS 261338
2008 11 01.30886 03 41 16.87 +21 22 28.9 19.6   704 – Lincoln Laboratory ETS, New Mexico MPS 263061
